Time,TemperatureF,DewpointF,PressureIn,WindDirection,WindDirectionDegrees,WindSpeedMPH,WindSpeedGustMPH,Humidity,HourlyPrecipIn,Conditions,Clouds,dailyrainin,SoftwareType,DateUTC
2013-01-14 00:01:00,5.6,1.3,30.35,WNW,290,0.0,2.0,82,0.00,,---,0.00,VWS V14.01,2013-01-14 07:01:00,
2013-01-14 00:31:00,5.8,1.5,30.36,WSW,250,0.0,2.0,82,0.00,,---,0.00,VWS V14.01,2013-01-14 07:31:00,
2013-01-14 01:01:00,6.0,1.7,30.36,West,259,0.0,2.0,82,0.00,,---,0.00,VWS V14.01,2013-01-14 08:01:00,
2013-01-14 01:31:00,6.0,1.7,30.38,WSW,241,1.0,2.0,82,0.00,,---,0.00,VWS V14.01,2013-01-14 08:31:00,
2013-01-14 02:01:00,5.0,0.7,30.38,West,268,1.0,2.0,82,0.00,,---,0.00,VWS V14.01,2013-01-14 09:01:00,
2013-01-14 02:31:00,3.8,-0.5,30.38,West,262,0.0,3.0,82,0.00,,---,0.00,VWS V14.01,2013-01-14 09:31:00,
2013-01-14 03:01:00,2.9,-1.3,30.39,West,269,0.0,2.0,82,0.00,,---,0.00,VWS V14.01,2013-01-14 10:01:00,
2013-01-14 03:31:00,1.8,-2.7,30.39,West,263,0.0,2.0,81,0.00,,---,0.00,VWS V14.01,2013-01-14 10:31:00,
2013-01-14 04:01:00,0.6,-3.6,30.38,WNW,284,0.0,3.0,82,0.00,,---,0.00,VWS V14.01,2013-01-14 11:01:00,
2013-01-14 04:31:00,-0.5,-4.4,30.38,WSW,238,0.0,4.0,83,0.00,,---,0.00,VWS V14.01,2013-01-14 11:31:00,
2013-01-14 05:01:00,-1.1,-5.3,30.38,WSW,252,0.0,4.0,82,0.00,,---,0.00,VWS V14.01,2013-01-14 12:01:00,
2013-01-14 05:31:00,-1.0,-4.9,30.39,WSW,245,0.0,5.0,83,0.00,,---,0.00,VWS V14.01,2013-01-14 12:31:00,
2013-01-14 06:01:00,-0.4,-4.6,30.39,WSW,250,0.0,1.0,82,0.00,,---,0.00,VWS V14.01,2013-01-14 13:01:00,
2013-01-14 06:31:00,0.1,-4.1,30.39,SSW,202,0.0,3.0,82,0.00,,---,0.00,VWS V14.01,2013-01-14 13:31:00,
2013-01-14 07:01:00,0.5,-3.7,30.41,West,271,0.0,5.0,82,0.00,,---,0.00,VWS V14.01,2013-01-14 14:01:00,
2013-01-14 07:31:00,0.4,-3.8,30.42,SSW,203,3.0,5.0,82,0.00,,---,0.00,VWS V14.01,2013-01-14 14:31:00,
2013-01-14 08:01:00,0.5,-3.9,30.42,SW,234,3.0,4.0,81,0.00,,---,0.00,VWS V14.01,2013-01-14 15:01:00,
2013-01-14 08:31:00,0.9,-4.1,30.43,SW,221,0.0,3.0,79,0.00,,---,0.00,VWS V14.01,2013-01-14 15:31:00,
2013-01-14 09:01:00,1.4,-3.6,30.44,SW,232,1.0,7.0,79,0.00,,---,0.00,VWS V14.01,2013-01-14 16:01:00,
2013-01-14 09:31:00,4.0,-1.9,30.44,West,262,3.0,8.0,76,0.00,,---,0.00,VWS V14.01,2013-01-14 16:31:00,
2013-01-14 10:01:00,7.0,0.8,30.44,SW,215,0.0,4.0,75,0.00,,---,0.00,VWS V14.01,2013-01-14 17:01:00,
2013-01-14 10:31:00,7.2,1.0,30.43,SW,220,0.0,6.0,75,0.00,,---,0.00,VWS V14.01,2013-01-14 17:31:00,
2013-01-14 11:01:00,9.7,3.1,30.42,South,185,0.0,3.0,74,0.00,,---,0.00,VWS V14.01,2013-01-14 18:01:00,
2013-01-14 11:31:00,9.8,3.2,30.41,SW,214,3.0,7.0,74,0.00,,---,0.00,VWS V14.01,2013-01-14 18:31:00,
2013-01-14 12:01:00,10.0,3.4,30.39,SSW,194,0.0,5.0,74,0.00,,---,0.00,VWS V14.01,2013-01-14 19:01:00,
2013-01-14 12:31:00,10.8,4.2,30.38,South,180,1.0,6.0,74,0.00,,---,0.00,VWS V14.01,2013-01-14 19:31:00,
2013-01-14 13:01:00,11.4,5.3,30.37,SSE,167,2.0,5.0,76,0.00,,---,0.00,VWS V14.01,2013-01-14 20:01:00,
2013-01-14 13:31:00,13.1,6.1,30.36,SSE,159,0.0,4.0,73,0.00,,---,0.00,VWS V14.01,2013-01-14 20:31:00,
2013-01-14 14:01:00,12.7,6.0,30.36,SE,140,0.0,4.0,74,0.00,,---,0.00,VWS V14.01,2013-01-14 21:01:00,
2013-01-14 14:31:00,11.6,5.5,30.36,SSE,157,1.0,3.0,76,0.00,,---,0.00,VWS V14.01,2013-01-14 21:31:00,
2013-01-14 15:01:00,10.6,5.1,30.35,SE,134,0.0,2.0,78,0.00,,---,0.00,VWS V14.01,2013-01-14 22:01:00,
2013-01-14 15:31:00,9.0,4.4,30.35,SE,125,0.0,3.0,81,0.00,,---,0.00,VWS V14.01,2013-01-14 22:31:00,
2013-01-14 16:01:00,8.2,3.8,30.35,SSE,167,1.0,5.0,82,0.00,,---,0.00,VWS V14.01,2013-01-14 23:01:00,
2013-01-14 16:31:00,8.1,4.3,30.34,SSE,149,1.0,4.0,84,0.00,,---,0.00,VWS V14.01,2013-01-14 23:31:00,
2013-01-14 17:01:00,8.5,4.7,30.34,SE,140,1.0,3.0,84,0.00,,---,0.00,VWS V14.01,2013-01-15 00:01:00,
2013-01-14 17:31:00,8.8,5.0,30.34,ESE,115,0.0,2.0,84,0.00,,---,0.00,VWS V14.01,2013-01-15 00:31:00,
2013-01-14 18:01:00,9.1,5.5,30.34,SSE,156,0.0,3.0,85,0.00,,---,0.00,VWS V14.01,2013-01-15 01:01:00,
2013-01-14 18:31:00,9.0,5.4,30.33,SSE,157,1.0,2.0,85,0.00,,---,0.00,VWS V14.01,2013-01-15 01:31:00,
2013-01-14 19:01:00,9.3,6.0,30.33,SSE,163,0.0,2.0,86,0.00,,---,0.00,VWS V14.01,2013-01-15 02:01:00,
2013-01-14 19:31:00,9.8,6.5,30.33,SSE,163,0.0,1.0,86,0.00,,---,0.00,VWS V14.01,2013-01-15 02:31:00,
2013-01-14 20:01:00,10.4,7.1,30.32,SSE,163,0.0,1.0,86,0.00,,---,0.00,VWS V14.01,2013-01-15 03:01:00,
2013-01-14 20:31:00,10.7,7.3,30.31,SSE,167,0.0,2.0,86,0.00,,---,0.00,VWS V14.01,2013-01-15 03:31:00,
2013-01-14 21:01:00,10.3,6.7,30.31,SSE,167,0.0,1.0,85,0.00,,---,0.00,VWS V14.01,2013-01-15 04:01:00,
2013-01-14 21:31:00,9.0,5.4,30.30,SSW,202,2.0,2.0,85,0.00,,---,0.00,VWS V14.01,2013-01-15 04:31:00,
2013-01-14 22:01:00,8.2,4.6,30.29,SSW,202,0.0,2.0,85,0.00,,---,0.00,VWS V14.01,2013-01-15 05:01:00,
2013-01-14 22:31:00,7.3,3.5,30.29,SSW,202,0.0,0.0,84,0.00,,---,0.00,VWS V14.01,2013-01-15 05:31:00,
2013-01-14 23:01:00,6.9,2.6,30.29,SSW,202,0.0,0.0,82,0.00,,---,0.00,VWS V14.01,2013-01-15 06:01:00,
2013-01-14 23:31:00,6.0,2.0,30.28,SSW,202,0.0,0.0,83,0.00,,---,0.00,VWS V14.01,2013-01-15 06:31:00,